This demonstration page uses our WeatherBlox Daily Observations layout. Learn more.

Left ArrowRight Arrow

32.84923, -109.75925

Hourly Observations for February 21, 2022

Temp ( °F °C ) Dew Point ( °F °C ) Humidity (%) Winds ( mph kmh ) Pressure ( in mb ) Visibility ( mi km ) Precip ( " mm )
12:51 am 00:51 Clear 49 9.4 15 -9.4 26 26 Calm 29.82 1010 10 16 0.00 0.00
1:51 am 01:51 Clear 45 7.2 15 -9.4 30 30 Calm 29.81 1010 10 16 0.00 0.00
2:51 am 02:51 Clear 47 8.3 16 -8.9 29 29 ESE 6 9 29.79 1009 10 16 0.00 0.00
3:51 am 03:51 Clear 42 5.6 16 -8.9 35 35 ESE 6 9 29.78 1009 10 16 0.00 0.00
4:51 am 04:51 Clear 42 5.6 16 -8.9 35 35 SE 9 15 29.77 1008 10 16 0.00 0.00
5:51 am 05:51 Clear 42 5.6 16 -8.9 35 35 E 7 11 29.78 1008 10 16 0.00 0.00
6:51 am 06:51 Clear 43 6.1 14 -10 31 31 E 8 13 29.79 1009 10 16 0.00 0.00
7:51 am 07:51 Sunny 42 5.6 15 -9.4 33 33 NW 5 7 29.80 1009 10 16 0.00 0.00
8:51 am 08:51 Sunny 48 8.9 16 -8.9 28 28 Calm 29.79 1009 10 16 0.00 0.00
9:51 am 09:51 Sunny 56 13.3 16 -8.9 21 21 WNW 5 7 29.76 1008 10 16 0.00 0.00
10:51 am 10:51 Sunny 60 15.6 16 -8.9 18 18 Calm 29.74 1007 10 16 0.00 0.00
12:51 pm 12:51 Sunny 64 17.8 16 -8.9 15 15 VRB 7 11 29.69 1006 10 16 0.00 0.00
1:51 pm 13:51 Sunny 67 19.4 15 -9.4 13 13 undefined N/A 29.67 1005 10 16 0.00 0.00
2:51 pm 14:51 Sunny 65 18.3 15 -9.4 14 14 WNW 22 35 29.68 1005 10 16 0.00 0.00
3:51 pm 15:51 Sunny 64 17.8 20 -6.7 18 18 NW 23 37 29.72 1006 10 16 0.00 0.00
4:51 pm 16:51 Sunny 62 16.7 23 -5 22 22 NW 22 35 29.74 1007 10 16 0.00 0.00
5:51 pm 17:51 Sunny 59 15 25 -3.9 27 27 NW 15 24 29.76 1008 10 16 0.00 0.00
6:51 pm 18:51 Clear 56 13.3 27 -2.8 33 33 WNW 15 24 29.79 1009 10 16 0.00 0.00
7:51 pm 19:51 Clear 54 12.2 29 -1.7 38 38 NW 12 19 29.83 1010 10 16 0.00 0.00
8:51 pm 20:51 Clear 53 11.7 28 -2.2 38 38 WNW 13 20 29.84 1010 10 16 0.00 0.00
9:51 pm 21:51 Clear 51 10.6 29 -1.7 43 43 N 9 15 29.84 1011 10 16 0.00 0.00
10:51 pm 22:51 Clear 50 10 29 -1.7 44 44 NW 13 20 29.85 1011 10 16 0.00 0.00
11:51 pm 23:51 Clear 49 9.4 29 -1.7 46 46 NW 7 11 29.86 1011 10 16 0.00 0.00

Powered by Vaisala Xweather